Flag for U.S.A. Weather past 2 weeks in Barrow, Alaska, U.S.A.

Now
31 °F

More clouds than sun.


Feels Like: 22 °F
Forecast: 27 / 29 °F
Wind: 10 mph from North

Location: Post Rogers Memorial Airport

Current Time: Jun 2, 2015 at 5:43:40 AM

Latest Report: Jun 2, 2015 at 4:53 AM


Visibility: 7 mi

Pressure: 30.18 "Hg

Humidity: 96%

Dew point: 30 °F

Location of BarrowLocation

Historic Weather in Barrow — Graph

°F

Barrow temperature yesterday

Maximum temperature yesterday: 33 °F (at 1:53 PM)
Minimum temperature yesterday: 25 °F (at 12:53 AM)
Average temperature yesterday: 29 °F

Past Weeks' High & Low Weather Summary

 TemperatureHumidityPressure
High47 °F (May 21, 5:53 PM)100% (May 19, 7:53 PM)30.54 "Hg (May 19, 7:53 PM)
Low25 °F (Jun 1, 12:53 AM)60% (May 22, 8:53 PM)29.90 "Hg (May 21, 11:53 AM)
Average33 °F91%30.21 "Hg
* Reported May 18 3:53 AM — Jun 2 3:53 AM, Barrow, Weather by CustomWeather, © 2015

Note: Actual official high and low records may vary slightly from our data, if they occured in-between our weather recording intervals... More about our weather records

Advertising

Barrow weather history for previous 24 hours

 ConditionsComfort  
Time TempWeatherWind HumidityBarometerVisibility
3:53 AM
Tue, Jun 2
31 °FLight snow. Ice fog.10 mph96%30.18 "Hg2 mi
2:53 AM31 °FLight freezing rain. Ice fog.15 mph96%30.19 "Hg5 mi
1:53 AM31 °FIce fog.14 mph96%30.19 "Hg1 mi
12:53 AM31 °FIce fog.12 mph100%30.20 "Hg1 mi
11:53 PM
Mon, Jun 1
30 °FLow clouds.13 mph100%30.22 "Hg10 mi
10:53 PM31 °FLow clouds.10 mph96%30.23 "Hg10 mi
9:53 PM31 °FIce fog.12 mph96%30.26 "Hg0 mi
8:53 PM31 °FIce fog.9 mph96%30.28 "Hg2 mi
6:53 PM31 °FLow clouds.10 mph96%30.32 "Hg10 mi
5:53 PM32 °FLow clouds.9 mph92%30.33 "Hg10 mi
4:53 PM32 °FLow clouds.10 mph88%30.34 "Hg10 mi
3:53 PM33 °FLow clouds.9 mph88%30.37 "Hg10 mi
2:53 PM33 °FLow clouds.12 mph88%30.38 "Hg10 mi
1:53 PM33 °FMostly cloudy.12 mph88%30.39 "Hg10 mi
12:53 PM31 °FMostly cloudy.12 mph92%30.40 "Hg10 mi
11:53 AM30 °FPartly sunny.12 mph89%30.41 "Hg10 mi
10:53 AM29 °FPartly sunny.12 mph89%30.42 "Hg10 mi
9:53 AM28 °FPartly sunny.12 mph89%30.44 "Hg10 mi
8:53 AM27 °FLow clouds.10 mph92%30.46 "Hg10 mi
7:53 AM27 °FLow clouds.10 mph89%30.48 "Hg10 mi
6:53 AM27 °FLow clouds.9 mph89%30.48 "Hg10 mi
5:53 AM27 °FLow clouds.7 mph85%30.49 "Hg10 mi
Weather by CustomWeather, © 2015

See weather overviewHow to use our weather pages